Main page
METAR-TAF:

METAR-TAF

Airports :

Birjand, Iran

Birjand International Airport

latitude: 32-52N, longitude: 059-12E, elevation: 1491 m

Current weather observation

The report was made 25 minutes ago, at 07:00 UTC
Wind 12 kt from the North/Northeast
Temperature 30°C
Humidity 12%
Pressure 1016 hPa
Visibility 10 km or more
no clouds below 1500 m and no cumulonimbus

METAR: OIMB 190700Z 02012KT CAVOK 30/M02 Q1016

Time: 11:55 (07:25 UTC)


TAF: missing

Weather observations and forecasts of more than 4000 airports (METAR and TAF reports).

The available stations are represented by yellow and red dots on the map.

Hover mouse over dot to see the name of the station.

Then click to see weather observations and forecasts.

To change the map : click on the green buttons with a black cross to zoom in, on the green button with a dash to zoom out, or on the green arrows for adjacent maps.


METAR-TAF: